Weather History for Hyannis, MA

Change the Weather History Date:

Thursday, January 17, 2013

  Actual Average Record
Temperature  
Mean Temperature 39 °F -  
Max Temperature 44 °F 37 °F 52 °F (1949)
Min Temperature 34 °F 19 °F 1 °F (1971)
Degree Days  
Heating Degree Days 26    
Moisture  
Dew Point 29 °F    
Average Humidity 74    
Maximum Humidity 96    
Minimum Humidity 53    
Precipitation  
Precipitation 0.00 in - - ()
Sea Level Pressure  
Sea Level Pressure 29.97 in    
Wind  
Wind Speed 8 mph (WNW)    
Max Wind Speed 12 mph    
Max Gust Speed 22 mph    
Visibility 10 miles    
Events Snow    
Averages and records for this station are not official NWS values.
T = Trace of Precipitation, MM = Missing Value Source: NWS Daily Summary

Daily Weather History Graph

Daily Weather History Graph

Search for Another Location

Airport:

Trip Planner

Search our weather history database for the weather conditions in past years. The results will help you decide how hot, cold, wet, or windy it might be!

Date:

Astronomy

Jan. 17, 2013 Rise Set
Actual Time 7:04 AM EST 4:38 PM EST
Civil Twilight 6:34 AM EST 5:08 PM EST
Nautical Twilight 6:00 AM EST 5:43 PM EST
Astronomical Twilight 5:26 AM EST 6:16 PM EST
Moon 10:03 AM EST (1/17) 11:33 PM EST (1/17)
Length of Visible Light 10h 34m
Length of Day
9h 33m
Waxing Crescent, 37% of the Moon is Illuminated
Jan 17
Waxing Crescent
Jan 18
First Quarter
Jan 26
Full
Feb 3
Last Quarter
Feb 10
New

Hourly Weather History & Observations

Time (EST) Temp. Windchill Dew Point Humidity Pressure Visibility Wind Dir Wind Speed Gust Speed Precip Events Conditions
12:56 AM 37.0 °F 29.8 °F 35.1 °F 93% 29.86 in 10.0 mi WSW 10.4 mph - N/A   Overcast
1:36 AM 35.6 °F 29.2 °F 33.8 °F 93% 29.86 in 10.0 mi WSW 8.1 mph - N/A   Scattered Clouds
1:56 AM 36.0 °F 29.6 °F 34.0 °F 93% 29.87 in 10.0 mi West 8.1 mph - N/A   Clear
2:56 AM 36.0 °F 29.6 °F 34.0 °F 93% 29.86 in 10.0 mi WSW 8.1 mph - N/A   Clear
3:56 AM 35.1 °F 27.9 °F 34.0 °F 96% 29.86 in 10.0 mi WSW 9.2 mph - N/A   Clear
4:56 AM 34.0 °F 28.0 °F 33.1 °F 96% 29.86 in 10.0 mi West 6.9 mph - N/A   Clear
5:56 AM 34.0 °F 27.2 °F 33.1 °F 96% 29.88 in 10.0 mi WSW 8.1 mph - N/A   Clear
6:56 AM 34.0 °F 28.0 °F 33.1 °F 96% 29.90 in 10.0 mi West 6.9 mph - N/A   Clear
7:56 AM 34.0 °F 29.8 °F 33.1 °F 96% 29.93 in 7.0 mi WSW 4.6 mph - N/A   Clear
8:56 AM 37.0 °F 31.6 °F 32.0 °F 82% 29.97 in 10.0 mi West 6.9 mph - N/A   Clear
9:56 AM 39.0 °F 32.8 °F 28.9 °F 67% 29.98 in 10.0 mi WNW 9.2 mph 19.6 mph N/A   Clear
10:56 AM 42.1 °F 36.6 °F 28.9 °F 60% 29.97 in 10.0 mi WNW 9.2 mph 20.7 mph N/A   Clear
11:56 AM 42.1 °F 37.1 °F 28.0 °F 58% 29.94 in 10.0 mi WNW 8.1 mph 18.4 mph N/A   Clear
12:56 PM 42.1 °F 36.1 °F 27.0 °F 55% 29.96 in 10.0 mi West 10.4 mph 18.4 mph N/A   Clear
1:56 PM 44.1 °F 39.5 °F 28.0 °F 53% 29.97 in 10.0 mi West 8.1 mph - N/A   Clear
2:56 PM 42.1 °F 37.1 °F 27.0 °F 55% 29.99 in 10.0 mi NW 8.1 mph - N/A   Clear
3:56 PM 42.1 °F 39.2 °F 28.0 °F 58% 30.01 in 10.0 mi WNW 4.6 mph - N/A   Clear
4:56 PM 39.9 °F - 28.0 °F 63% 30.02 in 10.0 mi Calm Calm - N/A   Clear
5:56 PM 39.0 °F 36.8 °F 27.0 °F 62% 30.04 in 10.0 mi WNW 3.5 mph - N/A   Clear
6:56 PM 39.0 °F - 25.0 °F 57% 30.05 in 10.0 mi Calm Calm - N/A   Scattered Clouds
7:56 PM 37.9 °F - 26.1 °F 62% 30.05 in 10.0 mi Calm Calm - N/A   Overcast
8:56 PM 37.9 °F 35.5 °F 28.9 °F 70% 30.04 in 10.0 mi North 3.5 mph - N/A   Overcast
9:56 PM 36.0 °F 28.0 °F 28.9 °F 76% 30.04 in 9.0 mi NNE 11.5 mph 19.6 mph 0.00 in Snow Light Snow
10:16 PM 35.6 °F 28.0 °F 28.4 °F 75% 30.03 in 9.0 mi NNE 10.4 mph - 0.00 in   Overcast
10:24 PM 35.6 °F 28.6 °F 26.6 °F 70% 30.03 in 9.0 mi North 9.2 mph - 0.00 in Snow Light Snow
10:35 PM 35.6 °F 28.6 °F 26.6 °F 70% 30.04 in 7.0 mi North 9.2 mph - 0.00 in Snow Light Snow
10:47 PM 35.6 °F 27.5 °F 26.6 °F 70% 30.03 in 9.0 mi North 11.5 mph - 0.00 in Snow Light Snow
10:56 PM 35.1 °F 27.4 °F 26.1 °F 70% 30.03 in 9.0 mi NNE 10.4 mph - 0.00 in   Overcast
11:56 PM 34.0 °F 26.0 °F 23.0 °F 64% 30.03 in 10.0 mi North 10.4 mph 21.9 mph N/A   Overcast